QPF
0.00 0.00 0.00 0.00 0.00 0.00 0.00 0.00 0.00 0.01 0.01 0.01 0.01 0.01 0.02 0.03 0.03 0.02 0.03 0.03 0.05 0.11 0.20 0.24 0.21 0.27 0.36 0.35 0.39 0.36 0.29 0.19 0.14 0.06 0.05 0.04 0.04 0.02 0.01 0.00 0.00 0.00 0.00 0.00
0.00 0.00 0.00 0.00 0.00 0.00 0.00 0.00 0.00 0.00 0.00 0.01 0.01 0.01 0.02 0.04 0.03 0.02 0.01 0.02 0.03 0.07 0.14 0.18 0.15 0.23 0.28 0.30 0.37 0.34 0.27 0.19 0.12 0.06 0.03 0.03 0.02 0.01 0.00 0.00 0.00 0.00 0.00 0.00
0.00 0.00 0.00 0.00 0.00 0.00 0.00 0.00 0.00 0.00 0.00 0.00 0.01 0.03 0.04 0.06 0.04 0.02 0.01 0.01 0.01 0.03 0.07 0.12 0.13 0.15 0.18 0.21 0.25 0.28 0.22 0.17 0.12 0.07 0.04 0.03 0.01 0.01 0.00 0.00 0.00 0.00 0.00 0.00
0.00 0.00 0.00 0.00 0.00 0.00 0.00 0.00 0.00 0.00 0.00 0.01 0.02 0.05 0.07 0.08 0.06 0.02 0.01 0.02 0.02 0.03 0.04 0.08 0.09 0.09 0.09 0.10 0.14 0.19 0.16 0.12 0.09 0.06 0.03 0.01 0.00 0.00 0.00 0.00 0.00 0.00 0.00 0.00
0.00 0.00 0.00 0.00 0.00 0.00 0.00 0.00 0.00 0.01 0.01 0.03 0.05 0.08 0.10 0.09 0.07 0.04 0.03 0.02 0.02 0.03 0.03 0.04 0.04 0.07 0.07 0.08 0.10 0.12 0.13 0.10 0.07 0.04 0.03 0.01 0.00 0.00 0.00 0.00 0.00 0.00 0.00 0.00
0.00 0.00 0.00 0.00 0.00 0.00 0.00 0.00 0.00 0.01 0.03 0.08 0.09 0.10 0.17 0.10 0.06 0.05 0.03 0.02 0.02 0.02 0.02 0.03 0.03 0.06 0.07 0.07 0.09 0.08 0.09 0.07 0.05 0.03 0.02 0.01 0.01 0.00 0.00 0.00 0.00 0.00 0.00 0.00
0.00 0.00 0.00 0.00 0.00 0.00 0.00 0.00 0.00 0.02 0.05 0.11 0.09 0.13 0.18 0.09 0.05 0.04 0.03 0.02 0.02 0.01 0.02 0.03 0.06 0.06 0.05 0.05 0.05 0.05 0.05 0.05 0.04 0.03 0.02 0.01 0.01 0.01 0.00 0.00 0.00 0.00 0.00 0.00
0.00 0.00 0.00 0.00 0.00 0.00 0.00 0.00 0.01 0.02 0.04 0.07 0.08 0.14 0.17 0.11 0.05 0.03 0.02 0.02 0.01 0.01 0.01 0.01 0.04 0.03 0.04 0.03 0.03 0.04 0.05 0.05 0.04 0.03 0.02 0.01 0.01 0.00 0.00 0.00 0.00 0.00 0.00 0.00
0.00 0.00 0.00 0.00 0.00 0.00 0.00 0.00 0.01 0.01 0.02 0.07 0.12 0.14 0.16 0.11 0.05 0.03 0.03 0.02 0.01 0.01 0.01 0.00 0.01 0.01 0.01 0.02 0.03 0.04 0.05 0.06 0.05 0.04 0.03 0.02 0.01 0.01 0.01 0.00 0.00 0.00 0.00 0.00
0.00 0.00 0.00 0.00 0.00 0.01 0.01 0.01 0.01 0.01 0.02 0.07 0.12 0.14 0.12 0.10 0.06 0.04 0.03 0.02 0.02 0.01 0.01 0.00 0.00 0.00 0.00 0.01 0.02 0.05 0.05 0.08 0.09 0.09 0.08 0.05 0.03 0.02 0.02 0.02 0.01 0.01 0.01 0.01
0.00 0.00 0.00 0.00 0.01 0.01 0.01 0.01 0.01 0.02 0.02 0.05 0.10 0.12 0.08 0.08 0.06 0.05 0.04 0.02 0.02 0.02 0.01 0.01 0.00 0.00 0.00 0.01 0.02 0.04 0.05 0.08 0.09 0.08 0.08 0.08 0.07 0.06 0.06 0.06 0.04 0.03 0.02 0.01
0.01 0.01 0.01 0.01 0.01 0.01 0.01 0.02 0.03 0.03 0.03 0.04 0.07 0.07 0.05 0.07 0.07 0.07 0.05 0.03 0.03 0.02 0.01 0.01 0.00 0.00 0.01 0.02 0.02 0.03 0.04 0.04 0.02 0.02 0.03 0.05 0.06 0.07 0.08 0.10 0.09 0.06 0.03 0.02
0.01 0.01 0.02 0.02 0.01 0.02 0.02 0.03 0.04 0.04 0.04 0.04 0.07 0.09 0.06 0.07 0.11 0.14 0.08 0.05 0.03 0.03 0.03 0.02 0.01 0.01 0.01 0.01 0.02 0.03 0.03 0.03 0.02 0.02 0.03 0.03 0.04 0.05 0.09 0.11 0.10 0.06 0.04 0.03
0.01 0.01 0.02 0.03 0.02 0.03 0.03 0.03 0.04 0.05 0.05 0.04 0.05 0.09 0.09 0.06 0.13 0.11 0.06 0.07 0.05 0.04 0.05 0.04 0.03 0.02 0.01 0.01 0.02 0.03 0.03 0.03 0.03 0.03 0.02 0.02 0.02 0.03 0.05 0.08 0.08 0.07 0.06 0.05
0.02 0.02 0.02 0.02 0.03 0.04 0.04 0.03 0.03 0.03 0.03 0.03 0.05 0.06 0.06 0.06 0.07 0.06 0.10 0.15 0.09 0.05 0.05 0.04 0.03 0.02 0.01 0.01 0.02 0.02 0.02 0.03 0.03 0.02 0.02 0.01 0.02 0.03 0.03 0.04 0.05 0.08 0.10 0.10
0.04 0.04 0.04 0.04 0.05 0.05 0.05 0.04 0.03 0.02 0.02 0.03 0.04 0.04 0.05 0.06 0.08 0.10 0.10 0.09 0.07 0.06 0.04 0.05 0.06 0.04 0.02 0.02 0.02 0.02 0.03 0.04 0.04 0.04 0.04 0.03 0.04 0.04 0.04 0.04 0.04 0.09 0.11 0.12
0.07 0.08 0.09 0.10 0.08 0.08 0.06 0.06 0.04 0.03 0.04 0.04 0.03 0.04 0.05 0.08 0.09 0.13 0.14 0.06 0.04 0.05 0.05 0.07 0.11 0.07 0.04 0.03 0.04 0.05 0.06 0.07 0.09 0.10 0.09 0.09 0.08 0.09 0.09 0.10 0.12 0.13 0.13 0.14
0.12 0.12 0.11 0.13 0.13 0.11 0.07 0.05 0.05 0.05 0.05 0.04 0.03 0.05 0.06 0.09 0.09 0.11 0.12 0.09 0.06 0.05 0.05 0.06 0.08 0.09 0.11 0.11 0.11 0.12 0.14 0.18 0.25 0.26 0.25 0.27 0.26 0.25 0.26 0.28 0.26 0.23 0.21 0.18
0.10 0.13 0.15 0.16 0.20 0.16 0.10 0.08 0.07 0.07 0.07 0.06 0.06 0.08 0.11 0.10 0.09 0.09 0.07 0.07 0.06 0.05 0.05 0.06 0.09 0.11 0.14 0.20 0.21 0.17 0.17 0.20 0.26 0.30 0.32 0.36 0.35 0.33 0.33 0.31 0.28 0.27 0.28 0.28
0.11 0.11 0.16 0.17 0.17 0.17 0.13 0.08 0.08 0.11 0.14 0.11 0.12 0.15 0.15 0.13 0.14 0.10 0.07 0.05 0.04 0.03 0.04 0.05 0.07 0.08 0.11 0.16 0.18 0.17 0.17 0.17 0.16 0.15 0.16 0.23 0.28 0.29 0.28 0.24 0.24 0.28 0.32 0.34
0.15 0.16 0.18 0.18 0.17 0.14 0.11 0.07 0.07 0.12 0.16 0.19 0.20 0.20 0.19 0.17 0.14 0.13 0.08 0.04 0.02 0.02 0.02 0.03 0.04 0.05 0.06 0.08 0.11 0.14 0.16 0.15 0.14 0.12 0.12 0.13 0.16 0.19 0.19 0.19 0.20 0.25 0.29 0.32
0.21 0.22 0.22 0.21 0.22 0.19 0.12 0.10 0.11 0.10 0.12 0.18 0.20 0.24 0.26 0.24 0.17 0.10 0.05 0.02 0.01 0.01 0.02 0.03 0.03 0.04 0.05 0.06 0.08 0.12 0.19 0.22 0.23 0.24 0.25 0.24 0.23 0.21 0.20 0.19 0.18 0.17 0.18 0.20
0.23 0.26 0.23 0.22 0.25 0.22 0.18 0.18 0.16 0.14 0.17 0.23 0.19 0.21 0.21 0.22 0.16 0.08 0.04 0.02 0.01 0.01 0.01 0.02 0.04 0.05 0.06 0.09 0.12 0.17 0.21 0.24 0.27 0.28 0.31 0.32 0.30 0.27 0.24 0.20 0.18 0.16 0.14 0.14
0.19 0.26 0.30 0.29 0.27 0.25 0.22 0.21 0.18 0.17 0.18 0.23 0.21 0.16 0.13 0.12 0.09 0.05 0.03 0.01 0.01 0.00 0.01 0.01 0.01 0.02 0.02 0.03 0.05 0.08 0.10 0.10 0.11 0.12 0.13 0.14 0.16 0.16 0.16 0.18 0.19 0.18 0.18 0.17
0.16 0.17 0.24 0.29 0.31 0.37 0.31 0.27 0.23 0.21 0.22 0.25 0.22 0.17 0.14 0.09 0.06 0.04 0.02 0.01 0.00 0.00 0.00 0.00 0.00 0.00 0.00 0.00 0.00 0.01 0.02 0.03 0.04 0.06 0.06 0.07 0.09 0.10 0.10 0.11 0.13 0.15 0.16 0.17
0.21 0.18 0.15 0.20 0.21 0.28 0.31 0.33 0.31 0.26 0.23 0.19 0.18 0.18 0.15 0.12 0.08 0.04 0.02 0.02 0.01 0.01 0.00 0.00 0.00 0.00 0.00 0.00 0.00 0.00 0.00 0.01 0.02 0.04 0.06 0.06 0.06 0.06 0.07 0.06 0.07 0.08 0.08 0.09
MSLP
1011.92 1012.45 1012.67 1012.60 1012.33 1011.94 1011.53 1011.18 1010.90 1010.69 1010.53 1010.36 1010.16 1009.92 1009.66 1009.42 1009.25 1009.21 1009.32 1009.57 1009.92 1010.32 1010.69 1010.97 1011.12 1011.15 1011.11 1011.04 1011.04 1011.17 1011.48 1011.98 1012.64 1013.38 1014.14 1014.83 1015.40 1015.80 1016.05 1016.18 1016.25 1016.31 1016.41 1016.58
1012.31 1012.68 1012.71 1012.46 1012.06 1011.63 1011.28 1011.06 1010.99 1011.03 1011.11 1011.15 1011.11 1010.96 1010.71 1010.44 1010.20 1010.08 1010.12 1010.31 1010.62 1010.98 1011.31 1011.53 1011.60 1011.52 1011.33 1011.13 1010.99 1011.02 1011.28 1011.77 1012.45 1013.27 1014.11 1014.87 1015.49 1015.92 1016.16 1016.25 1016.26 1016.27 1016.34 1016.51
1012.26 1012.46 1012.32 1011.95 1011.50 1011.10 1010.87 1010.87 1011.07 1011.39 1011.74 1012.00 1012.09 1012.00 1011.73 1011.38 1011.03 1010.78 1010.70 1010.80 1011.05 1011.38 1011.68 1011.88 1011.91 1011.77 1011.51 1011.21 1010.99 1010.94 1011.14 1011.61 1012.31 1013.16 1014.05 1014.87 1015.53 1015.98 1016.21 1016.28 1016.27 1016.25 1016.30 1016.47
1011.76 1011.81 1011.55 1011.12 1010.69 1010.41 1010.40 1010.68 1011.20 1011.84 1012.46 1012.93 1013.14 1013.06 1012.73 1012.24 1011.72 1011.30 1011.07 1011.05 1011.23 1011.52 1011.82 1012.03 1012.08 1011.94 1011.67 1011.35 1011.08 1010.98 1011.14 1011.57 1012.25 1013.10 1014.00 1014.83 1015.50 1015.96 1016.20 1016.26 1016.24 1016.21 1016.26 1016.43
1010.95 1010.86 1010.51 1010.08 1009.76 1009.68 1009.95 1010.56 1011.43 1012.40 1013.29 1013.93 1014.22 1014.12 1013.68 1013.02 1012.29 1011.67 1011.25 1011.09 1011.19 1011.46 1011.78 1012.05 1012.16 1012.10 1011.87 1011.57 1011.30 1011.18 1011.29 1011.67 1012.29 1013.09 1013.94 1014.75 1015.40 1015.85 1016.09 1016.16 1016.14 1016.11 1016.17 1016.35
1009.99 1009.77 1009.39 1009.02 1008.85 1009.02 1009.60 1010.56 1011.78 1013.05 1014.17 1014.95 1015.28 1015.12 1014.54 1013.68 1012.73 1011.89 1011.28 1010.99 1011.01 1011.26 1011.63 1011.98 1012.21 1012.26 1012.13 1011.89 1011.65 1011.51 1011.58 1011.88 1012.42 1013.12 1013.89 1014.63 1015.24 1015.66 1015.89 1015.96 1015.95 1015.95 1016.02 1016.21
1009.07 1008.75 1008.35 1008.08 1008.09 1008.52 1009.40 1010.68 1012.18 1013.70 1014.99 1015.86 1016.19 1015.95 1015.23 1014.17 1013.02 1011.97 1011.19 1010.78 1010.73 1010.99 1011.42 1011.87 1012.23 1012.41 1012.40 1012.26 1012.07 1011.93 1011.95 1012.17 1012.59 1013.17 1013.83 1014.47 1015.01 1015.39 1015.60 1015.68 1015.69 1015.71 1015.80 1016.00
1008.33 1007.93 1007.55 1007.37 1007.56 1008.20 1009.33 1010.84 1012.55 1014.22 1015.61 1016.51 1016.80 1016.48 1015.62 1014.41 1013.09 1011.89 1010.98 1010.48 1010.40 1010.66 1011.15 1011.70 1012.19 1012.50 1012.62 1012.58 1012.44 1012.32 1012.30 1012.44 1012.75 1013.21 1013.74 1014.28 1014.73 1015.06 1015.26 1015.34 1015.37 1015.41 1015.52 1015.73
1007.84 1007.40 1007.05 1006.96 1007.27 1008.06 1009.33 1010.97 1012.77 1014.49 1015.87 1016.74 1016.97 1016.56 1015.61 1014.31 1012.90 1011.62 1010.66 1010.11 1010.01 1010.29 1010.83 1011.46 1012.04 1012.46 1012.69 1012.74 1012.66 1012.56 1012.52 1012.60 1012.82 1013.17 1013.59 1014.03 1014.42 1014.70 1014.88 1014.97 1015.02 1015.08 1015.20 1015.42
1007.60 1007.16 1006.84 1006.81 1007.19 1008.04 1009.34 1010.97 1012.73 1014.37 1015.68 1016.45 1016.60 1016.13 1015.15 1013.83 1012.42 1011.15 1010.19 1009.66 1009.58 1009.87 1010.43 1011.10 1011.73 1012.22 1012.52 1012.64 1012.62 1012.55 1012.51 1012.56 1012.73 1013.01 1013.36 1013.73 1014.06 1014.32 1014.49 1014.58 1014.65 1014.73 1014.87 1015.10
1007.56 1007.15 1006.88 1006.89 1007.27 1008.09 1009.30 1010.79 1012.38 1013.85 1014.98 1015.62 1015.69 1015.19 1014.23 1012.98 1011.66 1010.49 1009.62 1009.15 1009.10 1009.40 1009.95 1010.61 1011.24 1011.74 1012.07 1012.23 1012.25 1012.22 1012.21 1012.28 1012.44 1012.70 1013.03 1013.37 1013.68 1013.92 1014.10 1014.21 1014.29 1014.39 1014.54 1014.77
1007.63 1007.30 1007.08 1007.11 1007.45 1008.16 1009.20 1010.46 1011.78 1012.99 1013.89 1014.36 1014.35 1013.85 1012.97 1011.87 1010.72 1009.72 1009.00 1008.63 1008.62 1008.92 1009.44 1010.04 1010.60 1011.06 1011.37 1011.54 1011.60 1011.61 1011.65 1011.77 1011.97 1012.25 1012.59 1012.94 1013.26 1013.52 1013.71 1013.84 1013.94 1014.05 1014.21 1014.44
1007.78 1007.54 1007.39 1007.42 1007.70 1008.26 1009.06 1010.03 1011.04 1011.93 1012.57 1012.87 1012.77 1012.31 1011.55 1010.64 1009.72 1008.94 1008.40 1008.16 1008.20 1008.49 1008.94 1009.44 1009.90 1010.27 1010.52 1010.67 1010.74 1010.81 1010.91 1011.09 1011.36 1011.70 1012.08 1012.47 1012.82 1013.11 1013.32 1013.47 1013.59 1013.72 1013.88 1014.11
1007.99 1007.86 1007.78 1007.82 1008.02 1008.41 1008.96 1009.62 1010.29 1010.86 1011.24 1011.36 1011.19 1010.77 1010.17 1009.48 1008.81 1008.27 1007.93 1007.82 1007.92 1008.19 1008.55 1008.92 1009.25 1009.50 1009.67 1009.77 1009.84 1009.93 1010.10 1010.35 1010.70 1011.11 1011.55 1011.99 1012.37 1012.69 1012.92 1013.10 1013.24 1013.37 1013.54 1013.76
1008.28 1008.25 1008.24 1008.28 1008.41 1008.64 1008.96 1009.32 1009.67 1009.94 1010.07 1010.03 1009.81 1009.45 1008.99 1008.52 1008.10 1007.80 1007.66 1007.68 1007.83 1008.07 1008.33 1008.58 1008.77 1008.89 1008.96 1008.99 1009.05 1009.16 1009.37 1009.69 1010.10 1010.57 1011.06 1011.54 1011.95 1012.29 1012.54 1012.73 1012.88 1013.03 1013.20 1013.41
1008.66 1008.72 1008.75 1008.80 1008.87 1008.97 1009.08 1009.20 1009.27 1009.28 1009.19 1009.01 1008.75 1008.44 1008.12 1007.85 1007.66 1007.58 1007.61 1007.75 1007.94 1008.16 1008.36 1008.49 1008.55 1008.55 1008.52 1008.50 1008.52 1008.64 1008.87 1009.22 1009.67 1010.17 1010.69 1011.17 1011.60 1011.94 1012.20 1012.40 1012.55 1012.70 1012.87 1013.07
1009.13 1009.22 1009.29 1009.33 1009.35 1009.34 1009.30 1009.22 1009.08 1008.89 1008.64 1008.36 1008.07 1007.80 1007.60 1007.49 1007.48 1007.58 1007.77 1008.01 1008.26 1008.47 1008.61 1008.67 1008.63 1008.55 1008.44 1008.36 1008.36 1008.46 1008.69 1009.04 1009.49 1009.98 1010.49 1010.96 1011.36 1011.69 1011.94 1012.13 1012.28 1012.43 1012.58 1012.77
1009.64 1009.71 1009.76 1009.77 1009.74 1009.66 1009.52 1009.31 1009.04 1008.71 1008.36 1008.01 1007.71 1007.48 1007.37 1007.38 1007.52 1007.76 1008.07 1008.40 1008.71 1008.94 1009.07 1009.09 1009.01 1008.88 1008.73 1008.62 1008.59 1008.67 1008.88 1009.20 1009.60 1010.05 1010.50 1010.92 1011.28 1011.57 1011.80 1011.97 1012.11 1012.25 1012.39 1012.55
1010.08 1010.07 1010.06 1010.03 1009.95 1009.82 1009.62 1009.35 1009.01 1008.62 1008.22 1007.86 1007.56 1007.38 1007.33 1007.44 1007.69 1008.04 1008.44 1008.86 1009.22 1009.50 1009.65 1009.69 1009.62 1009.49 1009.34 1009.22 1009.18 1009.23 1009.40 1009.66 1010.00 1010.37 1010.74 1011.09 1011.38 1011.62 1011.80 1011.94 1012.06 1012.18 1012.31 1012.44
1010.34 1010.21 1010.10 1010.00 1009.87 1009.71 1009.50 1009.22 1008.88 1008.50 1008.12 1007.78 1007.52 1007.39 1007.41 1007.59 1007.91 1008.34 1008.83 1009.31 1009.74 1010.08 1010.30 1010.39 1010.37 1010.28 1010.16 1010.06 1010.01 1010.04 1010.16 1010.36 1010.61 1010.89 1011.17 1011.42 1011.64 1011.81 1011.94 1012.05 1012.15 1012.24 1012.35 1012.45
1010.31 1010.03 1009.80 1009.62 1009.46 1009.29 1009.09 1008.86 1008.58 1008.27 1007.97 1007.70 1007.52 1007.46 1007.55 1007.79 1008.17 1008.66 1009.20 1009.75 1010.24 1010.65 1010.95 1011.12 1011.18 1011.16 1011.09 1011.02 1010.99 1011.00 1011.07 1011.19 1011.36 1011.54 1011.72 1011.87 1012.00 1012.11 1012.19 1012.26 1012.33 1012.40 1012.48 1012.56
1009.97 1009.53 1009.19 1008.92 1008.73 1008.58 1008.45 1008.30 1008.14 1007.96 1007.78 1007.64 1007.56 1007.59 1007.75 1008.05 1008.47 1009.00 1009.58 1010.18 1010.73 1011.21 1011.58 1011.83 1011.97 1012.03 1012.03 1012.00 1011.97 1011.96 1011.99 1012.05 1012.13 1012.22 1012.30 1012.37 1012.43 1012.47 1012.50 1012.53 1012.57 1012.61 1012.66 1012.71
1009.34 1008.78 1008.33 1008.02 1007.82 1007.72 1007.67 1007.66 1007.65 1007.64 1007.63 1007.63 1007.69 1007.83 1008.06 1008.41 1008.88 1009.42 1010.03 1010.65 1011.24 1011.76 1012.19 1012.51 1012.72 1012.84 1012.88 1012.88 1012.86 1012.84 1012.82 1012.82 1012.83 1012.84 1012.84 1012.85 1012.84 1012.82 1012.81 1012.81 1012.81 1012.83 1012.85 1012.86
1008.55 1007.90 1007.41 1007.07 1006.91 1006.88 1006.96 1007.10 1007.27 1007.44 1007.62 1007.79 1007.99 1008.24 1008.55 1008.95 1009.43 1009.98 1010.59 1011.20 1011.80 1012.34 1012.79 1013.15 1013.40 1013.55 1013.62 1013.63 1013.61 1013.56 1013.50 1013.45 1013.39 1013.34 1013.29 1013.24 1013.19 1013.13 1013.09 1013.05 1013.02 1013.01 1013.00 1012.99
1007.77 1007.10 1006.60 1006.30 1006.20 1006.27 1006.49 1006.80 1007.15 1007.51 1007.86 1008.20 1008.53 1008.88 1009.26 1009.68 1010.17 1010.70 1011.28 1011.87 1012.44 1012.96 1013.40 1013.76 1014.01 1014.16 1014.23 1014.23 1014.18 1014.10 1014.00 1013.90 1013.80 1013.71 1013.62 1013.54 1013.46 1013.38 1013.31 1013.25 1013.20 1013.15 1013.11 1013.08
1007.20 1006.56 1006.12 1005.89 1005.88 1006.07 1006.43 1006.89 1007.41 1007.93 1008.44 1008.90 1009.34 1009.76 1010.17 1010.61 1011.07 1011.57 1012.10 1012.63 1013.14 1013.62 1014.02 1014.34 1014.55 1014.68 1014.72 1014.68 1014.60 1014.48 1014.34 1014.20 1014.08 1013.96 1013.85 1013.76 1013.67 1013.59 1013.51 1013.44 1013.37 1013.30 1013.23 1013.17
Thickness
5794 5777 5765 5774 5779 5778 5778 5773 5774 5790 5808 5795 5782 5779 5783 5788 5783 5775 5768 5763 5756 5751 5749 5747 5743 5741 5739 5737 5736 5735 5734 5736 5736 5736 5735 5734 5733 5734 5734 5735 5735 5735 5734 5734
5772 5767 5785 5793 5792 5787 5782 5774 5778 5791 5802 5790 5776 5773 5780 5783 5779 5777 5770 5762 5756 5749 5745 5743 5741 5739 5737 5737 5736 5734 5734 5735 5736 5737 5737 5736 5734 5732 5733 5734 5733 5733 5733 5733
5762 5779 5795 5791 5786 5782 5781 5778 5782 5784 5785 5781 5771 5756 5764 5774 5777 5774 5770 5764 5757 5752 5746 5743 5741 5739 5738 5737 5737 5736 5735 5736 5736 5736 5736 5733 5730 5729 5728 5729 5730 5732 5733 5732
5771 5789 5789 5783 5782 5785 5772 5795 5795 5787 5768 5748 5755 5730 5748 5757 5763 5765 5763 5760 5756 5753 5748 5744 5741 5739 5738 5738 5739 5737 5736 5735 5735 5736 5735 5732 5729 5726 5728 5729 5730 5731 5732 5732
5770 5786 5782 5777 5787 5794 5786 5798 5791 5781 5760 5740 5739 5728 5734 5748 5749 5757 5761 5760 5758 5755 5751 5747 5745 5742 5741 5741 5738 5737 5735 5735 5735 5736 5736 5733 5731 5730 5730 5730 5730 5730 5731 5731
5782 5795 5792 5791 5800 5803 5799 5787 5774 5757 5742 5721 5727 5724 5726 5738 5747 5754 5760 5761 5758 5757 5753 5750 5748 5745 5742 5741 5739 5737 5736 5735 5736 5736 5735 5734 5732 5731 5729 5728 5728 5728 5728 5729
5766 5782 5796 5801 5788 5794 5791 5760 5731 5725 5712 5711 5726 5723 5729 5755 5763 5761 5761 5761 5760 5758 5753 5750 5747 5744 5741 5740 5739 5738 5737 5736 5737 5737 5736 5735 5734 5733 5731 5730 5729 5727 5726 5726
5743 5751 5784 5796 5789 5779 5780 5763 5728 5714 5708 5709 5719 5717 5740 5766 5770 5771 5770 5766 5763 5758 5755 5753 5750 5747 5744 5743 5741 5740 5739 5738 5738 5737 5737 5736 5735 5734 5733 5732 5731 5729 5728 5728
5746 5754 5792 5803 5807 5795 5775 5766 5763 5735 5722 5705 5709 5724 5746 5766 5768 5769 5768 5765 5763 5761 5758 5756 5753 5751 5748 5746 5745 5744 5742 5740 5739 5738 5737 5736 5735 5735 5733 5732 5731 5730 5729 5728
5761 5751 5778 5796 5802 5799 5789 5777 5752 5731 5710 5700 5706 5716 5725 5748 5756 5760 5761 5762 5762 5762 5760 5759 5757 5754 5753 5751 5749 5746 5744 5742 5741 5739 5738 5737 5736 5735 5734 5732 5730 5729 5728 5728
5762 5745 5759 5774 5772 5772 5776 5767 5753 5734 5727 5705 5696 5714 5752 5752 5757 5758 5761 5764 5764 5763 5762 5762 5760 5758 5756 5753 5750 5747 5745 5743 5740 5740 5738 5737 5735 5734 5732 5731 5730 5729 5727 5726
5757 5741 5734 5754 5779 5789 5778 5765 5750 5729 5720 5716 5705 5719 5763 5762 5763 5762 5763 5766 5767 5766 5765 5765 5763 5760 5757 5753 5751 5749 5747 5744 5742 5741 5738 5736 5735 5733 5731 5730 5729 5728 5726 5724
5751 5732 5719 5729 5747 5765 5763 5760 5751 5738 5723 5713 5706 5722 5759 5760 5761 5763 5764 5764 5765 5766 5764 5762 5761 5760 5758 5756 5753 5750 5748 5746 5743 5741 5738 5735 5733 5731 5730 5728 5727 5726 5724 5721
5750 5726 5718 5714 5726 5744 5748 5752 5749 5736 5718 5715 5721 5731 5745 5753 5756 5759 5761 5762 5762 5763 5762 5759 5757 5758 5758 5757 5754 5751 5748 5746 5743 5740 5736 5733 5732 5730 5729 5727 5725 5723 5721 5718
5732 5716 5722 5731 5744 5746 5748 5750 5750 5743 5736 5727 5731 5734 5743 5751 5755 5757 5759 5758 5758 5757 5757 5756 5755 5756 5756 5754 5753 5751 5748 5746 5743 5738 5734 5732 5730 5728 5726 5723 5722 5719 5716 5714
5716 5709 5714 5721 5739 5743 5743 5749 5751 5749 5746 5740 5737 5736 5750 5751 5751 5751 5752 5751 5751 5751 5753 5753 5753 5754 5754 5753 5752 5749 5746 5745 5742 5737 5734 5731 5728 5724 5722 5720 5717 5714 5711 5709
5701 5699 5698 5699 5720 5727 5720 5736 5743 5744 5746 5741 5733 5740 5745 5740 5742 5743 5745 5745 5744 5745 5746 5747 5747 5749 5750 5750 5750 5747 5745 5743 5739 5735 5732 5728 5724 5720 5718 5716 5712 5709 5706 5703
5694 5690 5685 5687 5698 5691 5716 5740 5745 5741 5739 5743 5743 5742 5741 5737 5735 5737 5739 5737 5735 5738 5740 5741 5741 5741 5742 5745 5744 5744 5741 5737 5733 5730 5727 5723 5719 5715 5713 5710 5707 5704 5700 5698
5692 5685 5678 5675 5677 5689 5713 5726 5730 5727 5722 5735 5734 5734 5734 5734 5730 5723 5727 5730 5730 5731 5732 5732 5733 5733 5735 5736 5737 5736 5734 5730 5725 5724 5722 5719 5715 5711 5707 5703 5701 5698 5694 5692
5683 5681 5674 5671 5671 5673 5702 5722 5730 5723 5707 5726 5730 5728 5728 5727 5711 5707 5715 5719 5720 5722 5722 5722 5723 5724 5724 5725 5726 5724 5722 5719 5715 5715 5714 5712 5709 5705 5701 5697 5694 5692 5690 5687
5662 5664 5667 5666 5667 5681 5703 5716 5719 5699 5705 5721 5723 5722 5721 5716 5710 5707 5709 5708 5710 5710 5710 5711 5711 5711 5711 5712 5713 5710 5707 5706 5706 5706 5704 5702 5699 5695 5692 5689 5686 5684 5681 5678
5654 5656 5659 5661 5660 5672 5698 5706 5704 5707 5716 5717 5716 5715 5711 5707 5702 5701 5700 5699 5699 5698 5698 5699 5699 5698 5698 5700 5699 5696 5692 5693 5694 5694 5691 5688 5687 5685 5681 5678 5675 5672 5669 5666
5653 5658 5660 5663 5667 5681 5691 5696 5705 5711 5709 5708 5707 5706 5704 5698 5692 5690 5689 5689 5688 5687 5686 5686 5686 5685 5684 5685 5685 5683 5681 5682 5681 5679 5677 5675 5673 5672 5670 5667 5664 5661 5658 5654
5656 5662 5660 5660 5668 5678 5684 5691 5697 5703 5702 5701 5701 5698 5694 5688 5684 5681 5679 5677 5676 5675 5674 5674 5674 5673 5671 5671 5671 5669 5669 5669 5667 5665 5663 5662 5660 5659 5658 5656 5654 5650 5646 5643
5655 5657 5655 5656 5665 5673 5677 5684 5689 5691 5692 5689 5688 5687 5683 5679 5674 5672 5669 5667 5666 5665 5663 5662 5660 5659 5657 5657 5656 5656 5656 5655 5653 5650 5649 5648 5647 5645 5643 5642 5640 5638 5636 5633
5653 5655 5655 5656 5666 5667 5669 5676 5682 5680 5678 5677 5675 5671 5669 5668 5665 5662 5659 5657 5656 5653 5652 5650 5648 5646 5644 5644 5643 5642 5642 5642 5640 5637 5635 5634 5633 5631 5629 5627 5626 5625 5624 5622